Location: Bieg
(49.3499°N, 10.3835°E)
Time: 13:52:46
(UTC+00:00)

Meteor 1-28 Rocket - Visible Passes

Search period start: 15 December 2025 00:00
Search period end: 25 December 2025 00:00
Orbit: 433 x 442 km, 97.6° (Epoch: 14 December)

Date Brightness Start Highest point End Pass type
(mag) Time Alt. Az. Time Alt. Az. Time Alt. Az.
15 Dec 3.6 16:41:23 10° N 16:44:40 54° WNW 16:47:54 10° SSW visible
16 Dec 3.2 16:02:34 10° NNE 16:05:48 45° E 16:09:00 10° S visible
16 Dec 5.8 17:36:03 10° NNW 17:37:56 14° WNW 17:39:48 10° W visible
17 Dec 4.4 16:56:15 10° N 16:59:20 36° WNW 17:02:24 10° SW visible
18 Dec 2.8 16:17:11 10° NNE 16:20:31 71° E 16:23:49 10° S visible
18 Dec 6.1 17:51:56 10° NW 17:52:29 10° WNW 17:53:01 10° WNW visible
19 Dec 5.0 17:11:08 10° N 17:13:56 25° WNW 17:16:43 10° SW visible
20 Dec 3.0 16:31:50 10° N 16:35:10 75° WNW 16:38:28 10° SSW visible
21 Dec 3.7 15:53:05 10° NNE 15:56:09 33° E 15:59:11 10° SSE visible
21 Dec 5.6 17:26:05 10° NNW 17:28:25 18° WNW 17:30:45 10° WSW visible
22 Dec 3.8 16:46:27 10° N 16:49:41 49° WNW 16:52:53 10° SSW visible
23 Dec 3.1 16:07:29 10° NNE 16:10:43 50° E 16:13:57 10° S visible
23 Dec 5.9 17:41:10 10° NNW 17:42:49 13° WNW 17:44:27 10° W visible
24 Dec 4.5 17:01:05 10° N 17:04:07 33° WNW 17:07:07 10° SW visible
